Hourly Weather Roundup
Issued by NWS Central Illinois

Home | Current Version | Previous Version | Text Only | Print | Product List | Glossary On
Versions: 1 2 3 4 5 6 7 8 9 10 11 12 13 14 15 16 17 18 19 20 21 22 23 24 25 26 27 28 29 30 31 32 33 34 35 36 37 38 39 40 41 42 43 44 45 46 47 48 49 50
000
NZUS43 KILX 230810
HWRILX

Area Weather Roundup
National Weather Service Lincoln IL
300 AM CDT SAT SEP 23 2017

NOTE:  "FAIR" indicates few or no clouds below 12,000 feet, with
       no sigificant weather and/or obstructions to visibility.


CITY           SKY/WX    TMP DP  RH WIND       PRES   REMARKS
Bloomington    PTCLDY    72  66  81 S8        30.05F
Champaign      PTCLDY    69  65  86 SE5       30.05S
Danville       CLEAR     65  65  98 CALM      30.03S
Decatur        PTCLDY    71  65  81 CALM      30.04S
Effingham      PTCLDY    68  67  96 CALM      30.05S
Flora          CLEAR     70  67  93 CALM      30.03F
Galesburg      CLEAR     69  64  83 SE3       30.03S
Jacksonville   CLEAR     67  62  85 CALM      30.02S
Lacon          CLEAR     68  65  92 CALM      30.02S
Lawrenceville  CLEAR     69  68  96 NE3       30.04S
Litchfield     CLEAR     70  66  85 SE3       30.03S
$$


CITY           SKY/WX    TMP DP  RH WIND       PRES   REMARKS
Lincoln        CLEAR     70  66  88 CALM      30.03S
Macomb         CLEAR     66  64  90 S6        30.03F
Mattoon        CLEAR     72  68  87 S5        30.03F
Mt Carmel AP   CLEAR     66  64  93 CALM      30.04S
Olney-Noble AP CLEAR     68  66  93 CALM      30.04S
Paris AP       CLEAR     68  67  96 CALM      30.05F
Peoria         CLEAR     75  65  70 S3        30.02F
Pontiac        PTCLDY    71  70  98 SE5       30.04S
Rantoul        CLEAR     72  68  88 CALM      30.05S
Robinson       PTCLDY    65  65 100 CALM      30.05S FOG
Springfield    CLEAR     73  66  78 S3        30.03S
Taylorville    CLEAR     70  65  85 CALM      30.03F
$$

...REGIONAL REPORTS...


CITY           SKY/WX    TMP DP  RH WIND       PRES   REMARKS
Chicago O`Hare CLEAR     73  65  75 CALM      30.03S
Kankakee       CLEAR     67  66  97 CALM      30.05S
Moline         CLEAR     71  63  75 CALM      30.00S
Mount Sterling CLEAR     67  63  87 SE3       30.01F
Mount Vernon     N/A     63  63 100 CALM      30.03S
Pittsfield     CLEAR     68  64  86 CALM      30.03S
Quincy         CLEAR     72  62  71 S6        30.00F
Rockford       CLEAR     70  64  81 CALM      30.03F
$$


CITY           SKY/WX    TMP DP  RH WIND       PRES   REMARKS
Burlington     CLEAR     71  64  78 S3        30.00S
Cedar Rapids   CLEAR     71  32  23 S6        29.98F
Des Moines     CLEAR     74  67  78 S7        29.94F
Kirksville     CLEAR     69  63  81 S5        30.00S
Ottumwa        CLEAR     71  65  81 S6        29.98S
St Louis       CLEAR     75  65  70 CALM      30.02S
$$


CITY           SKY/WX    TMP DP  RH WIND       PRES   REMARKS
Terre Haute    CLEAR     67  65  93 CALM      30.04F FOG
Evansville     CLEAR     68  66  93 CALM      30.03F
Indianapolis   PTCLDY    71  66  84 SE5       30.06
Lafayette      CLEAR     68  68 100 CALM      30.04S
Madison        CLEAR     71  64  78 S3        30.01S
Milwaukee      CLEAR     75  67  76 SW6       30.02S
$$






USA.gov is the U.S. government's official web portal to all federal, state and local government web resources and services.